Webcams

EDPO Webcam Blick Richtung Osten (local time)

Webcam

Info zum Bild:

  • Blick zum Kloster Mariahilf, Entfernung ca. 3km
  • Blick zur Kirche St. Johannes, Entfernung ca. 1km
  • Blick zu den beiden Windrädern, Entfernung ca. 6km

EDPO Webcam Blick Richtung Westen (local time)

Webcam

Info zum Bild:

  • Blick zum Tyrolsberg, Entfernung ca. 3,5km

Dillberg Webcam Blick Richtung Westen zum Sender (local time)

Webcam

Info zum Bild:

  • Blick zum Dillberg Sender, Entfernung ca. 0,6 km
  • Höhe 2.716 ft über MSL Hindernis Höhe Sender (laut ICAO Karte)
  • Höhe 1.322 ft über EDPO Höhe Sender
  • Nord Platzrundenhöhe EDPO 2.200 ft

Dillberg Webcam Blick Richtung Osten zu EDPO (local time)

Webcam

Info zum Bild:

  • Blick vom Dillberg Richtung Neumarkt, Höhe 555ft über EDPO

Sparkasse Webcam Blick Richtung Nord-West über Neumarkt


Snapshot

Info zum Bild:

Nürnberger Fernsehturm (Rundum CAM)


METAR Informationen der nächstgelegenen Flughäfen


EDDN / Flughafen Nürnberg „Albrecht Dürer“

EDDN 101820Z 33008KT 300V360 CAVOK 20/09 Q1008 NOSIG

ETIC / Fliegerhorst Grafenwöhr AAF

ETIC 101756Z AUTO 31004KT 9999 CLR 22/12 A2976 RMK AO2 SLP070 T02180118 10282 20215 58004 $

ETIH / Fliegerhorst Hohenfels AAF

ETIH 101756Z AUTO 00000KT 9999 CLR 23/09 A2978 RMK AO2 SLP075 T02340094 10278 20234 58001 $